Home > Weather > Rawalpindi > Past weeks

Flag for Pakistan Weather for the Past 2 Weeks in Rawalpindi, Pakistan

Now
54 °F

Passing clouds.


Feels Like: 53 °F
Forecast: 48 / 69 °F
Wind: 5 mph from Northeast

Location: Islamabad Airport

Current Time: Feb 7, 2016 at 1:50:05 AM

Latest Report: Feb 7, 2016 at 1:00 AM


Visibility: 2 mi

Pressure: 29.98 "Hg (28.23 "Hg at 501m altitude)

Humidity: 72%

Dew point: 45 °F

Location of RawalpindiLocation

Historic Weather in Rawalpindi — Graph

°F

Rawalpindi Temperature Yesterday

Maximum temperature yesterday: 68 °F (at 4:00 PM)
Minimum temperature yesterday: 52 °F (at 1:00 AM)
Average temperature yesterday: 57 °F

High & Low Weather Summary for the Past Weeks

 TemperatureHumidityPressure
High73 °F (Feb 5, 2:00 PM)100% (Jan 23, 1:00 AM)30.21 "Hg (Jan 23, 1:00 AM)
Low37 °F (Jan 24, 6:00 AM)27% (Feb 5, 2:00 PM)29.89 "Hg (Feb 6, 5:00 AM)
Average54 °F72%30.06 "Hg
* Reported Jan 23 1:00 AM — Feb 7 1:00 AM, Rawalpindi, Weather by CustomWeather, © 2016

Note: Actual official high and low records may vary slightly from our data, if they occured in-between our weather recording intervals... More about our weather records

Advertising

Rawalpindi Weather History for the Previous 24 Hours

 ConditionsComfort  
Time TempWeatherWind HumidityBarometerVisibility
1:00 AM
Sun, Feb 7
54 °FPassing clouds.5 mph72%29.98 "Hg2 mi
12:00 AM55 °FPassing clouds.5 mph67%30.01 "Hg2 mi
11:00 PM
Sat, Feb 6
57 °FPassing clouds.9 mph67%29.98 "Hg2 mi
10:00 PM57 °FPassing clouds.9 mph63%29.98 "Hg2 mi
9:30 PM59 °FPassing clouds.7 mph63%29.98 "Hg2 mi
9:00 PM59 °FPassing clouds.7 mph63%29.98 "Hg2 mi
8:00 PM59 °FPassing clouds.7 mph59%29.95 "Hg2 mi
7:00 PM61 °FPassing clouds.9 mph55%29.95 "Hg2 mi
6:00 PM63 °FPassing clouds.7 mph56%29.95 "Hg4 mi
5:00 PM66 °FScattered clouds.9 mph49%29.95 "Hg4 mi
4:00 PM68 °FScattered clouds.12 mph43%29.92 "Hg4 mi
2:00 PM66 °FPartly sunny.12 mph46%29.95 "Hg4 mi
1:00 PM66 °FPartly sunny.9 mph49%29.95 "Hg2 mi
12:00 PM63 °FPartly sunny.5 mph49%29.98 "Hg2 mi
11:00 AM61 °FPartly sunny.5 mph55%29.95 "Hg2 mi
10:00 AM57 °FPartly sunny.No wind67%29.95 "Hg2 mi
9:00 AM54 °FPartly sunny.5 mph77%29.95 "Hg2 mi
8:00 AM52 °FPartly sunny.5 mph77%29.92 "Hg2 mi
7:00 AM52 °FPartly sunny.5 mph77%29.92 "Hg2 mi
6:00 AM52 °FPassing clouds.5 mph77%29.89 "Hg2 mi
5:00 AM52 °FPassing clouds.No wind77%29.89 "Hg2 mi
4:00 AM52 °FPassing clouds.5 mph77%29.92 "Hg2 mi
3:00 AM52 °FPassing clouds.No wind77%29.92 "Hg2 mi
2:30 AM52 °FPassing clouds.No wind77%29.92 "Hg2 mi
2:00 AM52 °FPassing clouds.No wind77%29.92 "Hg2 mi
1:00 AM52 °FPassing clouds.No wind77%29.95 "Hg2 mi
Weather by CustomWeather, © 2016

See weather overviewHow to use our weather pages